, LA

(GMT )
East Cameron 278

Weather History for KEHC - January, 2014

Change the Weather History Date:

Saturday, January 11, 2014

  Actual Average Record
Temperature  
Mean Temperature 68 °F -  
Max Temperature 75 °F - - ()
Min Temperature 62 °F - - ()
Cooling Degree Days 4    
Growing Degree Days 18 (Base 50)    
Moisture  
Dew Point 57 °F    
Average Humidity 73    
Maximum Humidity 94    
Minimum Humidity 37    
Precipitation  
Precipitation 0.00 in - - ()
Sea Level Pressure  
Sea Level Pressure 30.02 in    
Wind  
Wind Speed 20 mph (NW)    
Max Wind Speed 28 mph    
Max Gust Speed 32 mph    
Visibility 7 miles    
Events      
T = Trace of Precipitation, MM = Missing Value Source: NWS Daily Summary

Daily Weather History Graph

Daily Weather History Graph

Search for Another Location

Airport or City:

Astronomy

Jan. 11, 2014 Rise Set
Actual Time 7:05 AM CST 5:34 PM CST
Civil Twilight 6:39 AM CST 5:59 PM CST
Nautical Twilight 6:10 AM CST 6:28 PM CST
Astronomical Twilight 5:42 AM CST 6:57 PM CST
Moon 2:15 PM CST (1/11) 3:14 AM CST (1/11)
Length of Visible Light 11h 19m
Length of Day
10h 28m
Waxing Gibbous, 83% of the Moon is Illuminated
Jan 11
Waxing Gibbous
Jan 15
Full
Jan 23
Last Quarter
Jan 30
New
Feb 6
First Quarter

Hourly Weather History & Observations

Time (CST) Temp. Dew Point Humidity Pressure Visibility Wind Dir Wind Speed Gust Speed Precip Events Conditions
1:20 AM 73.4 °F 69.8 °F 88% 29.89 in 5.0 mi SSW 24.2 mph - N/A   Haze
1:55 AM 73.4 °F 69.8 °F 88% 29.88 in 4.0 mi SSW 24.2 mph - N/A   Mostly Cloudy
2:10 AM 73.4 °F 69.8 °F 88% 29.89 in 5.0 mi SW 21.9 mph - N/A   Mostly Cloudy
2:35 AM 73.4 °F 69.8 °F 88% 29.89 in 5.0 mi SW 24.2 mph - N/A   Overcast
2:55 AM 73.4 °F 69.8 °F 88% 29.89 in 6.0 mi SW 24.2 mph - N/A   Haze
3:10 AM 73.4 °F 69.8 °F 88% 29.89 in 6.0 mi SW 21.9 mph - N/A   Haze
3:20 AM 73.4 °F 69.8 °F 88% 29.89 in 5.0 mi SW 21.9 mph - N/A   Haze
3:45 AM 75.2 °F 69.8 °F 83% 29.90 in 6.0 mi SW 24.2 mph - N/A   Haze
4:10 AM 73.4 °F 69.8 °F 88% 29.90 in 5.0 mi SW 21.9 mph - N/A   Haze
5:20 AM 73.4 °F 68.0 °F 83% 29.91 in 5.0 mi SW 20.7 mph - N/A   Haze
6:00 AM 71.6 °F 68.0 °F 88% 29.92 in 4.0 mi WSW 20.7 mph - N/A   Overcast
6:20 AM 71.6 °F 68.0 °F 88% 29.93 in 4.0 mi WSW 19.6 mph - N/A   Overcast
6:40 AM 71.6 °F 68.0 °F 88% 29.93 in 4.0 mi WSW 21.9 mph - N/A   Mostly Cloudy
7:15 AM 69.8 °F 68.0 °F 94% 29.95 in 3.0 mi WSW 21.9 mph - N/A   Mostly Cloudy
7:55 AM 69.8 °F 68.0 °F 94% 29.97 in 4.0 mi WSW 27.6 mph - N/A   Scattered Clouds
8:15 AM 69.8 °F 68.0 °F 94% 29.98 in 4.0 mi WSW 24.2 mph - N/A   Mostly Cloudy
8:20 AM 69.8 °F 68.0 °F 94% 29.98 in 3.0 mi WSW 24.2 mph - N/A   Mostly Cloudy
8:50 AM 69.8 °F 68.0 °F 94% 30.01 in 4.0 mi West 25.3 mph 31.1 mph N/A   Mostly Cloudy
9:25 AM 69.8 °F 66.2 °F 88% 30.04 in 4.0 mi West 19.6 mph - N/A   Overcast
9:50 AM 68.0 °F 66.2 °F 94% 30.05 in 4.0 mi WNW 26.5 mph - N/A   Mostly Cloudy
10:10 AM 66.2 °F 64.4 °F 94% 30.06 in 1.8 mi WNW 25.3 mph 32.2 mph N/A   Mostly Cloudy
10:25 AM 66.2 °F 64.4 °F 94% 30.05 in 2.5 mi West 26.5 mph - N/A   Mostly Cloudy
11:25 AM 66.2 °F 64.4 °F 94% 30.04 in 4.0 mi West 24.2 mph - N/A   Clear
12:10 PM 66.2 °F 59.0 °F 78% 30.03 in 8.0 mi NW 21.9 mph - N/A   Clear
12:35 PM 64.4 °F 57.2 °F 77% 30.03 in 8.0 mi NW 24.2 mph - N/A   Partly Cloudy
12:50 PM 62.6 °F 57.2 °F 82% 30.03 in 6.0 mi NW 18.4 mph 25.3 mph N/A   Haze
1:10 PM 62.6 °F 59.0 °F 88% 30.03 in 6.0 mi NW 16.1 mph - N/A   Haze
1:30 PM 62.6 °F 59.0 °F 88% 30.03 in 5.0 mi NNW 12.7 mph - N/A   Haze
2:10 PM 62.6 °F 59.0 °F 88% 30.02 in 5.0 mi NNW 12.7 mph - N/A   Clear
2:35 PM 62.6 °F 59.0 °F 88% 30.02 in 5.0 mi NNW 13.8 mph - N/A   Clear
2:55 PM 62.6 °F 59.0 °F 88% 30.02 in 5.0 mi NNW 13.8 mph - N/A   Haze
3:30 PM 64.4 °F 57.2 °F 77% 30.03 in 8.0 mi NNW 15.0 mph - N/A   Clear
3:55 PM 64.4 °F 53.6 °F 68% 30.03 in 9.0 mi NNW 15.0 mph - N/A   Clear
4:15 PM 64.4 °F 51.8 °F 64% 30.04 in 10.0 mi NNW 13.8 mph - N/A   Clear
4:35 PM 64.4 °F 51.8 °F 64% 30.04 in 10.0 mi North 15.0 mph - N/A   Clear
4:55 PM 64.4 °F 50.0 °F 59% 30.04 in 9.0 mi North 15.0 mph - N/A   Clear
5:00 PM 66.2 °F 50.0 °F 56% 30.05 in 10.0 mi North 16.1 mph - N/A   Clear
5:25 PM 66.2 °F 48.2 °F 52% 30.05 in 10.0 mi North 16.1 mph - N/A   Clear
5:55 PM 66.2 °F 44.6 °F 46% 30.06 in 10.0 mi North 13.8 mph - N/A   Clear
6:15 PM 66.2 °F 44.6 °F 46% 30.07 in 10.0 mi North 12.7 mph - N/A   Clear
6:25 PM 66.2 °F 42.8 °F 43% 30.07 in 10.0 mi North 15.0 mph - N/A   Clear
7:30 PM 66.2 °F 44.6 °F 46% 30.10 in 10.0 mi North 12.7 mph - N/A   Clear
8:35 PM 66.2 °F 42.8 °F 43% 30.12 in 10.0 mi North 10.4 mph - N/A   Clear
8:55 PM 66.2 °F 42.8 °F 43% 30.12 in 10.0 mi North 9.2 mph - N/A   Clear
9:00 PM 66.2 °F 42.8 °F 43% 30.12 in 10.0 mi North 9.2 mph - N/A   Clear
9:35 PM 66.2 °F 44.6 °F 46% 30.13 in 10.0 mi North 8.1 mph - N/A   Clear
9:45 PM 66.2 °F 41.0 °F 40% 30.13 in 10.0 mi North 9.2 mph - N/A   Clear
10:30 PM 66.2 °F 39.2 °F 37% 30.13 in 10.0 mi NNE 10.4 mph - N/A   Clear
10:55 PM 66.2 °F 39.2 °F 37% 30.13 in 10.0 mi NNE 10.4 mph - N/A   Clear
11:15 PM 66.2 °F 41.0 °F 40% 30.13 in 10.0 mi North 11.5 mph - N/A   Clear
11:35 PM 64.4 °F 41.0 °F 42% 30.13 in 10.0 mi North 9.2 mph - N/A   Clear
11:45 PM 64.4 °F 41.0 °F 42% 30.13 in 10.0 mi North 9.2 mph - N/A   Clear